Change the Weather History Date:

Friday, December 23, 2011

  Actual Average (KEGE) Record (KEGE)
Temperature  
Mean Temperature 2 °F -  
Max Temperature 17 °F 33 °F 50 °F (1955)
Min Temperature -14 °F 5 °F -28 °F (1990)
Degree Days  
Heating Degree Days 64    
Moisture  
Dew Point -10 °F    
Average Humidity 65    
Maximum Humidity 84    
Minimum Humidity 45    
Precipitation  
Precipitation 0.00 in - - ()
Sea Level Pressure  
Sea Level Pressure 30.43 in    
Wind  
Wind Speed 0 mph (North)    
Max Wind Speed 0 mph    
Max Gust Speed -    
Visibility 10 miles    
Events      
Averages and records for this station are not official NWS values.
T = Trace of Precipitation, MM = Missing Value Source: NWS Daily Summary

Daily Weather History Graph

Daily Weather History Graph

Search for Another Location

Airport or City:

Trip Planner

Search our weather history database for the weather conditions in past years. The results will help you decide how hot, cold, wet, or windy it might be!

Date:

Astronomy

Dec. 23, 2011 Rise Set
Actual Time 7:24 AM MST 4:44 PM MST
Civil Twilight 6:54 AM MST 5:14 PM MST
Nautical Twilight 6:20 AM MST 5:49 PM MST
Astronomical Twilight 5:47 AM MST 6:22 PM MST
Moon 6:17 AM MST (12/23) 3:55 PM MST (12/23)
Length of Visible Light 10h 20m
Length of Day
9h 19m
Waning Crescent, 1% of the Moon is Illuminated
Dec 23
Waning Crescent
Dec 24
New
Dec 31
First Quarter
Jan 9
Full
Jan 16
Last Quarter

Hourly Weather History & Observations

Time (MST) Temp. Windchill Dew Point Humidity Pressure Visibility Wind Dir Wind Speed Gust Speed Precip Events Conditions
12:03 AM -5.8 °F - -9.4 °F 84% 30.34 in 7.0 mi Calm Calm - N/A   Clear
12:42 AM -7.6 °F - -13.0 °F 77% 30.35 in 5.0 mi Calm Calm - N/A   Haze
1:03 AM -7.6 °F - -14.8 °F 71% 30.36 in 10.0 mi Calm Calm - N/A   Clear
1:43 AM -9.4 °F - -16.6 °F 71% 30.37 in 10.0 mi Calm Calm - N/A   Clear
2:03 AM -9.4 °F - -16.6 °F 71% 30.38 in 10.0 mi Calm Calm - N/A   Clear
2:23 AM -9.4 °F - -14.8 °F 77% 30.39 in 10.0 mi Calm Calm - N/A   Clear
2:43 AM -9.4 °F - -16.6 °F 71% 30.40 in 10.0 mi Calm Calm - N/A   Clear
3:03 AM -9.4 °F - -16.6 °F 71% 30.40 in 10.0 mi Calm Calm - N/A   Clear
3:23 AM -9.4 °F - -16.6 °F 71% 30.40 in 10.0 mi Calm Calm - N/A   Clear
3:43 AM -9.4 °F - -16.6 °F 71% 30.41 in 10.0 mi Calm Calm - N/A   Clear
4:03 AM -9.4 °F - -16.6 °F 71% 30.41 in 7.0 mi Calm Calm - N/A   Clear
4:42 AM -13.0 °F - -18.4 °F 77% 30.42 in 10.0 mi Calm Calm - N/A   Clear
5:03 AM -13.0 °F - -18.4 °F 77% 30.43 in 10.0 mi Calm Calm - N/A   Clear
5:23 AM -13.0 °F - -18.4 °F 77% 30.44 in 10.0 mi Calm Calm - N/A   Clear
5:43 AM -13.0 °F - -18.4 °F 77% 30.44 in 10.0 mi Calm Calm - N/A   Clear
6:03 AM -13.0 °F - -18.4 °F 77% 30.45 in 10.0 mi Calm Calm - N/A   Clear
6:23 AM -13.0 °F - -18.4 °F 77% 30.46 in 10.0 mi Calm Calm - N/A   Clear
7:03 AM -14.8 °F - -22.0 °F 70% 30.47 in 10.0 mi Calm Calm - N/A   Clear
7:23 AM -13.0 °F - -20.2 °F 70% 30.47 in 10.0 mi Calm Calm - N/A   Clear
7:43 AM -13.0 °F - -20.2 °F 70% 30.48 in 10.0 mi Calm Calm - N/A   Clear
8:03 AM -13.0 °F - -18.4 °F 77% 30.49 in 10.0 mi Calm Calm - N/A   Clear
8:23 AM -9.4 °F - -16.6 °F 71% 30.49 in 10.0 mi Calm Calm - N/A   Clear
8:43 AM -7.6 °F - -14.8 °F 71% 30.49 in 10.0 mi Calm Calm - N/A   Clear
9:03 AM -5.8 °F - -13.0 °F 71% 30.49 in 10.0 mi Calm Calm - N/A   Clear
9:23 AM -5.8 °F - -13.0 °F 71% 30.49 in 7.0 mi Calm Calm - N/A   Clear
9:43 AM -4.0 °F - -11.2 °F 71% 30.49 in 10.0 mi Calm Calm - N/A   Clear
10:23 AM 1.4 °F - -7.6 °F 66% 30.49 in 10.0 mi Calm Calm - N/A   Clear
11:02 AM 3.2 °F - -5.8 °F 66% 30.48 in 10.0 mi Calm Calm - N/A   Clear
11:43 AM 8.6 °F - -5.8 °F 52% 30.46 in 10.0 mi Calm Calm - N/A   Clear
12:03 PM 10.4 °F - -4.0 °F 52% 30.44 in 10.0 mi Calm Calm - N/A   Clear
12:23 PM 10.4 °F - -4.0 °F 52% 30.43 in 10.0 mi Calm Calm - N/A   Clear
12:43 PM 12.2 °F - -2.2 °F 53% 30.42 in 10.0 mi Calm Calm - N/A   Clear
1:03 PM 14.0 °F - -0.4 °F 53% 30.41 in 10.0 mi Calm Calm - N/A   Clear
1:23 PM 14.0 °F - -0.4 °F 53% 30.40 in 10.0 mi Calm Calm - N/A   Clear
1:43 PM 15.8 °F - -0.4 °F 49% 30.39 in 10.0 mi Calm Calm - N/A   Clear
2:23 PM 17.6 °F - -0.4 °F 45% 30.40 in 10.0 mi Calm Calm - N/A   Clear
2:43 PM 17.6 °F - -0.4 °F 45% 30.39 in 10.0 mi Calm Calm - N/A   Clear
3:03 PM 17.6 °F - -0.4 °F 45% 30.40 in 10.0 mi Calm Calm - N/A   Clear
3:22 PM 17.6 °F - -0.4 °F 45% 30.40 in 10.0 mi Calm Calm - N/A   Clear
3:43 PM 17.6 °F - -0.4 °F 45% 30.40 in 10.0 mi Calm Calm - N/A   Clear
4:03 PM 17.6 °F - -0.4 °F 45% 30.40 in 10.0 mi Calm Calm - N/A   Clear
4:23 PM 14.0 °F - -0.4 °F 53% 30.41 in 10.0 mi Calm Calm - N/A   Clear
4:43 PM 12.2 °F - -0.4 °F 57% 30.41 in 10.0 mi Calm Calm - N/A   Clear
5:03 PM 10.4 °F - -2.2 °F 57% 30.42 in 10.0 mi Calm Calm - N/A   Clear
5:23 PM 8.6 °F - -4.0 °F 57% 30.42 in 10.0 mi Calm Calm - N/A   Clear
5:43 PM 8.6 °F - -4.0 °F 57% 30.43 in 10.0 mi Calm Calm - N/A   Clear
6:03 PM 3.2 °F - -5.8 °F 66% 30.44 in 10.0 mi Calm Calm - N/A   Clear
6:23 PM 3.2 °F - -7.6 °F 61% 30.44 in 10.0 mi Calm Calm - N/A   Clear
6:43 PM 1.4 °F - -5.8 °F 72% 30.45 in 10.0 mi Calm Calm - N/A   Clear
7:03 PM 1.4 °F - -7.6 °F 66% 30.45 in 10.0 mi Calm Calm - N/A   Clear
7:23 PM 1.4 °F - -5.8 °F 72% 30.46 in 10.0 mi Calm Calm - N/A   Clear
7:43 PM 1.4 °F - -7.6 °F 66% 30.46 in 10.0 mi Calm Calm - N/A   Clear
8:03 PM -2.2 °F - -7.6 °F 78% 30.46 in 10.0 mi Calm Calm - N/A   Clear
8:23 PM -0.4 °F - -5.8 °F 78% 30.46 in 10.0 mi Calm Calm - N/A   Clear
8:43 PM -2.2 °F - -9.4 °F 71% 30.46 in 10.0 mi Calm Calm - N/A   Clear
9:03 PM -4.0 °F - -9.4 °F 78% 30.47 in 10.0 mi Calm Calm - N/A   Clear
9:23 PM -4.0 °F - -9.4 °F 78% 30.47 in 7.0 mi Calm Calm - N/A   Clear
9:43 PM -2.2 °F - -9.4 °F 71% 30.49 in 10.0 mi Calm Calm - N/A   Clear
10:03 PM -5.8 °F - -13.0 °F 71% 30.49 in 10.0 mi Calm Calm - N/A   Clear
10:23 PM -5.8 °F -16.7 °F -11.2 °F 77% 30.50 in 10.0 mi North 4.6 mph - N/A   Clear
10:43 PM -4.0 °F - -11.2 °F 71% 30.50 in 10.0 mi Calm Calm - N/A   Clear
11:03 PM -5.8 °F - -11.2 °F 77% 30.51 in 10.0 mi Calm Calm - N/A   Clear
11:23 PM -5.8 °F - -11.2 °F 77% 30.51 in 10.0 mi Calm Calm - N/A   Clear
11:43 PM -7.6 °F - -14.8 °F 71% 30.51 in 10.0 mi Calm Calm - N/A   Clear